• Join FlightAware (Why Join?)
  • Login
  • US Flag 
02:00PM EST


 

Airport Tracker/Info


-or-


 

Live Flight TrackerFlight Track Log ✈ UAL326 ✈ 20-May-2013 ✈ KMCO - KIAD

Flight Track Log - Related Links

Times and Time Zones

All times are in EDT time to prevent confusion due to time zone crossing. See the UAL326 flight status page for this flight to view local times or setup timezone preferences in your user account.

Time Position Orientation Groundspeed Altitude Reporting Facility
EDT Latitude Longitude Course Direction KTS MPH feet Rate Location/Type
02:14PM 28.4167 -81.3167 350° North 166 191 500  Level Orlando TRACON
02:15PM 28.3667 -81.3500 210° Southwest 220 253 2,300 2,040 Climbing Orlando TRACON
02:16PM 28.3500 -81.4167 254° West 283 326 4,900 2,880 Climbing Orlando TRACON
02:17PM 28.7698 -81.3500 North  Level FlightAware Approximate
02:17PM 28.3667 -81.5000 283° West 281 323 8,100  Level Orlando TRACON
02:18PM 28.8900 -81.3613 350° North  Level FlightAware Approximate
02:18PM 28.4500 -81.5000 360° North 299 344 10,600  Level Orlando TRACON
02:19PM 29.0104 -81.3688 350° North  Level FlightAware Approximate
02:20PM 28.5831 -81.5286 349° North 342 394 14,500  Level Jacksonville Center
02:21PM 28.6814 -81.5461 351° North 342 394 16,000 1,620 Climbing Jacksonville Center
02:22PM 28.7836 -81.5614 353° North 349 402 17,800 1,860 Climbing Jacksonville Center
02:23PM 28.8903 -81.5858 349° North 375 432 19,800 1,740 Climbing Jacksonville Center
02:24PM 28.9867 -81.6083 348° North 382 440 21,300 1,560 Climbing Jacksonville Center
02:25PM 29.0975 -81.6356 348° North 393 452 23,000 1,560 Climbing Jacksonville Center
02:26PM 29.2253 -81.6647 349° North 403 464 24,500 1,440 Climbing Jacksonville Center
02:27PM 29.3442 -81.6800 354° North 415 478 25,900 1,140 Climbing Jacksonville Center
02:28PM 29.4656 -81.6928 355° North 427 491 26,800 1,020 Climbing Jacksonville Center
02:29PM 29.5931 -81.7056 355° North 439 505 28,000 1,140 Climbing Jacksonville Center
02:30PM 29.7203 -81.7208 354° North 451 519 29,100 1,020 Climbing Jacksonville Center
02:31PM 29.8500 -81.7336 355° North 457 526 30,100 1,140 Climbing Jacksonville Center
02:32PM 29.9836 -81.7464 355° North 465 535 31,400 1,260 Climbing Jacksonville Center
02:33PM 30.0986 -81.7544 357° North 465 535 32,700 1,200 Climbing Jacksonville Center
02:34PM 30.2261 -81.7700 354° North 460 529 33,800 960 Climbing Jacksonville Center
02:35PM 30.3578 -81.7828 355° North 460 529 34,700 600 Climbing Jacksonville Center
02:36PM 30.4853 -81.7958 355° North 465 535 35,000 120 Climbing Jacksonville Center
02:37PM 30.6147 -81.8161 352° North 460 529 35,000  Level Jacksonville Center
02:38PM 30.7444 -81.8292 355° North 465 535 35,000  Level Jacksonville Center
02:39PM 30.8739 -81.8444 354° North 465 535 35,000  Level Jacksonville Center
02:40PM 30.9994 -81.8600 354° North 465 535 35,000  Level Jacksonville Center
02:41PM 31.1289 -81.8733 355° North 465 535 35,000  Level Jacksonville Center
02:42PM 31.2564 -81.8889 354° North 465 535 35,000  Level Jacksonville Center
02:43PM 31.3942 -81.8994 356° North 458 527 35,000  Level Jacksonville Center
02:44PM 31.5114 -81.9131 354° North 452 520 35,000  Level Jacksonville Center
02:45PM 31.6492 -81.9286 355° North 459 528 35,000  Level Jacksonville Center
02:47PM 31.9756 -81.9675 354° North 465 535 35,000  Level Atlanta Center
02:48PM 32.1008 -81.9817 355° North 460 529 35,000  Level Atlanta Center
02:49PM 32.2431 -81.9958 355° North 448 516 35,000  Level Atlanta Center
02:50PM 32.3706 -82.0075 356° North 448 516 35,000  Level Atlanta Center
02:51PM 32.5025 -82.0242 354° North 455 524 35,000  Level Atlanta Center
02:52PM 32.6300 -82.0361 355° North 460 529 35,000  Level Atlanta Center
02:53PM 32.7575 -82.0553 353° North 460 529 35,000  Level Atlanta Center
02:54PM 32.8850 -82.0672 356° North 465 535 35,000 60 Level Atlanta Center
02:55PM 33.0125 -82.0819 354° North 465 535 35,200 420 Climbing Atlanta Center
02:56PM 33.1403 -82.0964 355° North 460 529 35,900 720 Climbing Atlanta Center
02:57PM 33.2697 -82.1133 354° North 465 535 36,700 540 Climbing Atlanta Center
02:58PM 33.3953 -82.1256 355° North 459 528 37,000 120 Climbing Atlanta Center
02:59PM 33.5250 -82.1400 355° North 459 528 37,000  Level Atlanta Center
03:00PM 33.6544 -82.1547 355° North 465 535 37,000  Level Atlanta Center
03:01PM 33.7714 -82.1469 North 465 535 37,000  Level Atlanta Center
03:02PM 33.8983 -82.1267 North 458 527 37,000  Level Atlanta Center
03:03PM 34.0253 -82.1064 North 458 527 37,000  Level Atlanta Center
03:04PM 34.1503 -82.0833 North 458 527 37,000  Level Atlanta Center
03:05PM 34.2750 -82.0631 North 458 527 37,000  Level Atlanta Center
03:06PM 34.3978 -82.0375 10° North 453 521 37,000  Level Atlanta Center
03:07PM 34.5228 -82.0194 North 448 516 37,000  Level Atlanta Center
03:08PM 34.6456 -81.9961 North 448 516 37,000  Level Atlanta Center
03:09PM 34.7744 -81.9728 North 448 516 37,000  Level Atlanta Center
03:10PM 34.8994 -81.9544 North 448 516 37,000  Level Atlanta Center
03:11PM 35.0389 -81.9383 North 453 521 37,000  Level Atlanta Center
03:12PM 35.1664 -81.9478 357° North 453 521 37,000  Level Atlanta Center
03:13PM 35.2917 -81.9625 355° North 458 527 37,000  Level Atlanta Center
03:14PM 35.4025 -81.9775 354° North 458 527 37,000  Level Atlanta Center
03:15PM 35.5281 -81.9922 355° North 458 527 37,000  Level Atlanta Center
03:16PM 35.6533 -82.0044 355° North 458 527 37,000  Level Atlanta Center
03:17PM 35.7789 -82.0217 354° North 453 521 37,000  Level Atlanta Center
03:18PM 35.9147 -82.0389 354° North 453 521 37,000  Level Atlanta Center
03:19PM 36.0381 -82.0539 354° North 448 516 37,000  Level Atlanta Center
03:20PM 36.1614 -82.0661 355° North 446 513 37,000  Level Atlanta Center
03:21PM 36.2700 -82.0789 355° North 446 513 37,000  Level Atlanta Center
03:22PM 36.3953 -82.0914 355° North 446 513 37,000  Level Atlanta Center
03:23PM 36.5186 -82.1092 353° North 446 513 37,000  Level Atlanta Center
03:24PM 36.6375 -82.1247 354° North 444 511 37,000  Level Indianapolis Center
03:25PM 36.7628 -82.1403 354° North 449 517 37,000  Level Indianapolis Center
03:26PM 36.8897 -82.1567 354° North 457 526 37,000  Level Indianapolis Center
03:27PM 37.0342 -82.1744 354° North 451 519 37,000  Level Indianapolis Center
03:29PM 37.1600 -82.1631 North 453 521 37,000  Level Indianapolis Center
03:30PM 37.2836 -82.1228 15° North 459 528 37,000  Level Indianapolis Center
03:31PM 37.4069 -82.0833 14° North 458 527 37,000  Level Indianapolis Center
03:32PM 37.5303 -82.0433 14° North 458 527 37,000  Level Indianapolis Center
03:33PM 37.6728 -81.9947 15° North 455 524 37,000  Level Indianapolis Center
03:34PM 37.7961 -81.9547 14° North 456 525 37,000  Level Indianapolis Center
03:35PM 37.9208 -81.9133 15° North 458 527 37,000  Level Indianapolis Center
03:36PM 38.0436 -81.8722 15° North 456 525 37,000  Level Indianapolis Center
03:37PM 38.1669 -81.8317 14° North 456 525 37,000 -300 Level Indianapolis Center
03:38PM 38.2653 -81.7369 37° Northeast 459 528 36,500 -540 Descending Indianapolis Center
03:39PM 38.2961 -81.5561 78° East 445 512 36,000 -600 Descending Indianapolis Center
03:40PM 38.2994 -81.4008 88° East 445 512 35,300 -780 Descending Indianapolis Center
03:41PM 38.3042 -81.2469 88° East 440 506 34,400 -960 Descending Indianapolis Center
03:42PM 38.3075 -81.0872 88° East 452 520 33,400 -720 Descending Indianapolis Center
03:43PM 38.3122 -80.9294 88° East 449 517 33,000 -240 Descending Indianapolis Center
03:44PM 38.3153 -80.7711 89° East 448 516 33,000  Level Indianapolis Center
03:45PM 38.3100 -80.5828 92° East 447 514 33,000  Level Indianapolis Center
03:46PM 38.3072 -80.4817 92° East 443 510 33,000  Level Washington Center
03:47PM 38.3328 -80.3139 79° East 443 510 33,000  Level Washington Center
03:48PM 38.3594 -80.1622 77° East 443 510 33,000 -60 Level Washington Center
03:49PM 38.3922 -80.0106 75° East 443 510 32,900 -1,200 Descending Washington Center
03:50PM 38.4269 -79.8589 74° East 443 510 30,600 -2,280 Descending Washington Center
03:51PM 38.4675 -79.7100 71° East 448 516 28,400 -2,340 Descending Washington Center
03:52PM 38.5197 -79.5828 62° Northeast 448 516 26,000 -2,220 Descending Washington Center
03:53PM 38.5722 -79.4475 64° Northeast 438 504 24,100 -1,020 Descending Washington Center
03:54PM 38.6242 -79.3200 62° Northeast 420 483 24,000 -120 Descending Washington Center
03:55PM 38.6850 -79.1689 63° Northeast 420 483 23,900 -1,320 Descending Washington Center
03:56PM 38.7367 -79.0436 62° Northeast 415 478 21,500 -2,880 Descending Washington Center
03:57PM 38.7653 -78.9172 74° East 391 450 18,400 -2,940 Descending Washington Center
03:58PM 38.7583 -78.7864 94° East 356 410 15,600 -2,220 Descending Washington Center
03:59PM 38.7514 -78.6608 94° East 356 410 13,900 -1,860 Descending Washington Center
04:00PM 38.7417 -78.5408 96° East 356 410 11,900 -1,500 Descending Washington Center
04:01PM 38.7342 -78.4233 95° East 346 398 11,000 -720 Descending Washington Center
04:02PM 38.7656 -78.3286 67° East 296 341 10,500 -780 Descending Washington Center
04:03PM 38.8236 -78.2508 46° Northeast 279 321 9,500 -1,080 Descending Washington Center
04:04PM 38.8650 -78.1617 59° Northeast 284 327 8,400 -1,260 Descending Washington Center
04:05PM 38.8900 -78.0639 72° East 284 327 7,000 -1,080 Descending Washington Center
04:06PM 38.9150 -77.9686 71° East 279 321 6,300 -540 Descending Washington Center
04:07PM 38.9331 -77.8919 73° East 279 321 6,000 -180 Descending Washington Center
04:08PM 38.9622 -77.7781 72° East 284 327 6,000  Level Washington Center
04:09PM 38.9578 -77.6792 93° East 278 320 6,000  Level Washington Center
04:10PM 39.0000 -77.5833 60° Northeast 286 329 6,000  Level Potomac TRACON
04:11PM 39.0833 -77.5667 North 261 300 6,000  Level Potomac TRACON
04:12PM 39.1500 -77.5667 360° North 230 265 6,000  Level Potomac TRACON
04:13PM 39.1833 -77.5333 38° Northeast 224 258 6,100 -840 Climbing Potomac TRACON
04:14PM 39.1667 -77.4667 108° East 196 226 4,500 -1,500 Descending Potomac TRACON
04:15PM 39.1167 -77.4500 165° South 178 205 3,100 -1,440 Descending Potomac TRACON